Startseite
Über Mich
AHP4
Galerie
Sehschlangen
Tourenbuch
Bookmarks
Elektronik
Bewertung
Geschichten
[Tagesmessung] [Jahreswerte] [Information]

Messwerte vom 11.01.2022

Die letzten Messwerte von 23:58:47 Uhr:
KategorieMesswert
Temperatur [°C]0
Luftdruck [mBar]1019
Sonneneinstrahlung0
Wind [km/h]0 aus Nord
Niederschlag [l/m²]0
rel.Luftfeucht.96.6%
CO2 [ppm]509

Diagramme
Messwerte vom 11.01.2022
Tagesaggregation
KategorieMinimumMaximumSchnittSumme
Temperatur [°C]052.0063
Luftdruck [mBar]101310201017.1234
Sonneneinstrahlung22865.9163
Wind [km/h]9
rF [%]96.696.696.6
Niederschlag [l/m²]0
CO2 [ppm]401627517.8
Einordnung alsKalter Tag

Messungen an benachbarten Tagen: Zur Jahresaggregation 2022
Tabelle aller Messwerte
UhrzeitTemperatur [°C]Luftdruck [mBar]SonneWind [km/h]RichtungRegen [l/m²]rF [%]CO2 [ppm]
00:01:45 2 1013 0 0 O 0 96.6 562
00:04:46 2 1014 0 0 O 0 96.6 565
00:07:46 2 1013 0 0 O 0 96.6 568
00:10:45 2 1013 0 0 O 0 96.6 569
00:13:49 2 1014 0 0 O 0 96.6 563
00:16:44 2 1014 0 0 O 0 96.6 559
00:19:45 2 1013 0 0 O 0 96.6 559
00:22:47 2 1014 0 0 NW 0 96.6 562
00:25:49 2 1014 0 0 NW 0 96.6 559
00:28:48 2 1014 0 0 NW 0 96.6 555
00:31:48 2 1014 0 0 NW 0 96.6 554
00:34:47 2 1014 0 0 NW 0 96.6 558
00:37:48 2 1014 0 0 NW 0 96.6 546
00:40:49 2 1013 0 0 NW 0 96.6 547
00:43:47 2 1014 0 0 NW 0 96.6 552
00:46:47 2 1014 0 0 NO 0 96.6 543
00:49:48 2 1014 0 0 NO 0 96.6 554
00:52:48 2 1014 0 0 NO 0 96.6 550
00:55:48 2 1014 0 0 NO 0 96.6 551
00:58:47 2 1015 0 0 NO 0 96.6 548
01:01:47 2 1014 0 0 NO 0 96.6 545
01:04:46 2 1014 0 0 N 0 96.6 540
01:07:47 2 1015 0 0 O 0 96.6 539
01:10:47 2 1014 0 0 O 0 96.6 545
01:13:45 2 1015 0 0 O 0 96.6 536
01:16:48 2 1015 0 0 O 0 96.6 528
01:19:49 2 1014 0 1 NO 0 96.6 511
01:22:48 2 1015 0 0 O 0 96.6 528
01:25:49 2 1014 0 0 N 0 96.6 536
01:28:47 2 1015 0 0 N 0 96.6 538
01:31:47 2 1015 0 0 N 0 96.6 548
01:34:48 2 1014 0 0 O 0 96.6 548
01:37:48 2 1015 0 0 O 0 96.6 550
01:40:45 2 1015 0 0 O 0 96.6 542
01:43:45 2 1014 0 0 O 0 96.6 541
01:46:47 2 1014 0 0 O 0 96.6 545
01:49:47 2 1014 0 0 O 0 96.6 547
01:52:46 2 1015 0 0 O 0 96.6 545
01:55:47 2 1015 0 0 NO 0 96.6 536
01:58:46 2 1014 0 0 NO 0 96.6 536
02:01:48 2 1014 0 0 O 0 96.6 534
02:04:46 2 1015 0 0 O 0 96.6 533
02:07:46 2 1015 0 0 O 0 96.6 533
02:10:46 2 1015 0 0 NO 0 96.6 533
02:13:48 2 1015 0 0 NO 0 96.6 533
02:16:45 2 1015 0 0 SO 0 96.6 530
02:19:47 2 1015 0 0 O 0 96.6 530
02:22:46 2 1015 0 0 N 0 96.6 527
02:25:45 2 1015 0 0 O 0 96.6 528
02:28:46 2 1016 0 1 N 0 96.6 521
02:31:47 2 1015 0 0 NO 0 96.6 512
02:34:48 2 1015 0 0 NO 0 96.6 510
02:37:49 2 1015 0 0 NO 0 96.6 506
02:40:47 2 1015 0 0 NO 0 96.6 515
02:43:47 2 1016 0 0 NO 0 96.6 512
02:46:46 2 1015 0 0 SO 0 96.6 516
02:49:46 2 1016 0 0 SO 0 96.6 515
02:52:48 2 1016 0 0 NO 0 96.6 514
02:55:47 2 1015 0 0 N 0 96.6 509
02:58:47 2 1015 0 0 NO 0 96.6 513
03:01:49 2 1015 0 0 NO 0 96.6 518
03:04:46 2 1015 0 0 S 0 96.6 513
03:07:45 2 1016 0 0 SO 0 96.6 509
03:10:46 2 1016 0 0 O 0 96.6 500
03:13:46 2 1015 0 0 O 0 96.6 500
03:16:47 2 1016 0 0 O 0 96.6 500
03:19:46 2 1016 0 0 O 0 96.6 503
03:22:46 2 1016 0 0 O 0 96.6 509
03:25:47 2 1016 0 1 NO 0 96.6 509
03:28:47 2 1016 0 0 SO 0 96.6 506
03:31:46 2 1016 0 0 N 0 96.6 501
03:34:48 2 1016 0 0 SO 0 96.6 504
03:37:45 2 1016 0 0 O 0 96.6 501
03:40:46 2 1016 0 0 O 0 96.6 491
03:43:49 2 1016 0 0 SO 0 96.6 488
03:46:44 2 1016 0 0 O 0 96.6 495
03:49:46 2 1017 0 0 S 0 96.6 498
03:52:46 2 1015 0 0 NO 0 96.6 492
03:55:47 2 1016 0 0 NO 0 96.6 484
03:58:46 2 1016 0 0 NO 0 96.6 480
04:01:46 2 1016 0 0 NO 0 96.6 480
04:04:48 2 1016 0 0 NO 0 96.6 480
04:07:48 2 1016 0 0 NO 0 96.6 489
04:10:48 2 1016 0 0 NO 0 96.6 492
04:13:46 2 1016 0 0 NO 0 96.6 500
04:16:45 2 1017 0 0 NO 0 96.6 494
04:19:48 2 1017 0 0 NO 0 96.6 478
04:22:44 2 1016 0 0 O 0 96.6 477
04:25:46 2 1016 0 0 O 0 96.6 482
04:28:47 2 1016 0 0 O 0 96.6 490
04:31:46 2 1017 0 0 O 0 96.6 489
04:34:48 2 1017 0 0 NO 0 96.6 491
04:37:46 2 1017 0 0 NO 0 96.6 488
04:40:45 2 1017 0 1 NO 0 96.6 491
04:43:46 2 1017 0 0 NO 0 96.6 491
04:46:48 2 1016 0 0 NO 0 96.6 489
04:49:47 2 1016 0 2 SO 0 96.6 478
04:52:46 2 1016 0 0 NO 0 96.6 474
04:55:47 2 1016 0 0 NO 0 96.6 477
04:58:46 2 1017 0 1 0 96.6 480
05:01:47 2 1017 0 1 O 0 96.6 483
05:04:45 2 1016 0 0 O 0 96.6 486
05:07:48 2 1017 0 0 O 0 96.6 489
05:10:45 2 1017 0 1 N 0 96.6 481
05:13:48 2 1017 0 0 SO 0 96.6 477
05:16:46 2 1016 0 0 NO 0 96.6 471
05:19:46 2 1017 0 0 SW 0 96.6 474
05:22:47 2 1017 0 2 SO 0 96.6 477
05:25:47 2 1016 0 0 N 0 96.6 477
05:28:46 2 1017 0 0 NO 0 96.6 482
05:31:47 2 1017 0 0 O 0 96.6 483
05:34:47 2 1017 0 0 N 0 96.6 480
05:37:48 2 1016 0 0 SO 0 96.6 480
05:40:48 2 1017 0 0 SO 0 96.6 480
05:43:46 2 1016 0 0 O 0 96.6 481
05:46:44 2 1016 0 0 O 0 96.6 475
05:49:46 2 1017 0 0 O 0 96.6 477
05:52:46 2 1017 0 0 SO 0 96.6 474
05:55:46 2 1017 0 0 SO 0 96.6 471
05:58:45 2 1017 0 0 O 0 96.6 472
06:01:46 2 1017 0 0 O 0 96.6 472
06:04:47 2 1017 0 0 SO 0 96.6 473
06:07:47 2 1017 0 0 SO 0 96.6 469
06:10:48 2 1017 0 0 SO 0 96.6 477
06:13:49 2 1017 0 0 SO 0 96.6 480
06:16:48 2 1017 0 0 NO 0 96.6 481
06:19:46 2 1017 0 0 O 0 96.6 485
06:22:47 2 1016 0 0 SO 0 96.6 481
06:25:50 2 1016 0 0 O 0 96.6 479
06:28:46 2 1017 0 0 O 0 96.6 478
06:31:50 2 1017 0 0 SO 0 96.6 482
06:34:47 2 1017 0 0 NO 0 96.6 484
06:37:47 2 1017 0 0 O 0 96.6 483
06:40:46 2 1017 0 0 O 0 96.6 475
06:43:49 2 1017 0 0 SO 0 96.6 474
06:46:48 2 1017 0 1 SO 0 96.6 472
06:49:47 2 1017 0 0 SO 0 96.6 474
06:52:47 2 1017 0 2 SO 0 96.6 478
06:55:46 2 1017 0 0 SO 0 96.6 477
06:58:47 2 1017 0 0 NO 0 96.6 477
07:01:47 2 1017 0 0 SO 0 96.6 475
07:04:48 2 1017 0 0 SO 0 96.6 477
07:07:45 2 1017 0 0 O 0 96.6 469
07:10:44 2 1017 0 0 O 0 96.6 474
07:13:45 2 1017 0 0 N 0 96.6 471
07:16:49 2 1017 0 1 SO 0 96.6 466
07:19:48 2 1017 0 0 SO 0 96.6 460
07:22:49 2 1017 0 0 O 0 96.6 457
07:25:47 2 1017 0 3 SO 0 96.6 465
07:28:47 2 1017 0 0 S 0 96.6 468
07:31:46 2 1017 0 0 SO 0 96.6 475
07:34:47 2 1017 0 0 NO 0 96.6 478
07:37:48 2 1017 0 0 SO 0 96.6 482
07:40:48 2 1017 0 0 O 0 96.6 495
07:43:47 2 1017 0 0 SO 0 96.6 498
07:46:46 2 1017 0 0 NO 0 96.6 492
07:49:48 2 1017 0 0 NO 0 96.6 495
07:52:47 2 1017 0 0 SO 0 96.6 507
07:55:47 2 1017 0 1 SO 0 96.6 519
07:58:46 2 1017 3 1 SO 0 96.6 521
08:01:46 2 1017 5 0 O 0 96.6 521
08:04:47 2 1017 7 0 O 0 96.6 521
08:07:48 2 1017 10 0 O 0 96.6 526
08:10:49 2 1017 14 0 SO 0 96.6 524
08:13:48 2 1017 18 0 SO 0 96.6 524
08:16:46 2 1017 23 1 O 0 96.6 521
08:19:48 2 1017 30 1 NO 0 96.6 530
08:22:46 2 1017 39 0 0 96.6 533
08:25:45 2 1017 48 1 N 0 96.6 524
08:28:48 2 1017 57 0 SO 0 96.6 527
08:31:48 2 1017 69 1 O 0 96.6 524
08:34:46 2 1017 83 1 S 0 96.6 521
08:37:47 2 1017 102 1 O 0 96.6 516
08:40:47 2 1017 117 0 O 0 96.6 516
08:43:48 2 1017 126 0 O 0 96.6 524
08:46:47 2 1017 134 1 SO 0 96.6 527
08:49:50 2 1017 139 1 SO 0 96.6 524
08:52:48 2 1017 143 0 NO 0 96.6 515
08:55:46 2 1017 146 0 O 0 96.6 528
08:58:47 2 1017 150 1 O 0 96.6 525
09:01:48 2 1017 152 0 SO 0 96.6 531
09:04:50 1 1017 155 2 SO 0 96.6 521
09:07:47 1 1017 158 0 0 96.6 525
09:10:51 1 1017 160 0 SO 0 96.6 521
09:13:46 1 1017 162 0 N 0 96.6 518
09:16:45 1 1017 164 1 0 96.6 516
09:19:48 1 1017 166 2 O 0 96.6 524
09:22:47 1 1017 168 2 NO 0 96.6 533
09:25:45 1 1018 170 1 O 0 96.6 541
09:28:48 1 1017 172 0 O 0 96.6 542
09:31:48 1 1017 174 1 NO 0 96.6 536
09:34:46 1 1017 176 0 N 0 96.6 533
09:37:47 1 1017 177 0 N 0 96.6 530
09:40:48 1 1017 178 0 N 0 96.6 524
09:43:47 1 1018 180 0 N 0 96.6 528
09:46:47 1 1017 182 0 N 0 96.6 509
09:49:48 1 1017 182 0 SO 0 96.6 465
09:52:47 1 1017 181 2 S 0 96.6 471
09:55:47 1 1017 183 0 O 0 96.6 501
09:58:47 1 1017 186 0 SO 0 96.6 512
10:01:47 1 1017 187 0 SO 0 96.6 512
10:04:46 1 1017 187 0 SO 0 96.6 510
10:07:49 1 1017 187 0 SO 0 96.6 518
10:10:47 1 1017 192 0 O 0 96.6 521
10:13:47 1 1017 194 0 SO 0 96.6 533
10:16:48 1 1017 192 0 S 0 96.6 539
10:19:47 2 1017 190 2 S 0 96.6 536
10:22:48 2 1017 192 0 NO 0 96.6 541
10:25:47 2 1017 194 0 N 0 96.6 542
10:28:48 2 1017 196 0 NO 0 96.6 545
10:31:49 2 1018 194 0 N 0 96.6 556
10:34:48 2 1017 201 1 SO 0 96.6 563
10:37:48 2 1018 199 0 NO 0 96.6 560
10:40:49 2 1017 198 2 O 0 96.6 556
10:43:48 2 1017 195 1 SO 0 96.6 559
10:46:49 2 1018 195 0 N 0 96.6 566
10:49:45 2 1017 194 1 S 0 96.6 572
10:52:47 2 1018 196 0 SO 0 96.6 574
10:55:48 2 1017 197 0 W 0 96.6 572
10:58:48 2 1017 197 0 O 0 96.6 566
11:01:47 2 1017 198 1 SO 0 96.6 565
11:04:47 3 1017 198 0 O 0 96.6 571
11:07:49 3 1017 198 1 SO 0 96.6 564
11:10:49 3 1018 199 0 SO 0 96.6 559
11:13:46 3 1017 199 5 O 0 96.6 563
11:16:50 3 1018 200 3 SW 0 96.6 568
11:19:49 3 1017 201 3 S 0 96.6 577
11:22:49 3 1017 202 2 SO 0 96.6 583
11:25:45 3 1017 201 1 S 0 96.6 574
11:28:48 3 1018 207 0 S 0 96.6 574
11:31:47 3 1017 206 6 S 0 96.6 568
11:34:48 3 1018 210 2 SO 0 96.6 569
11:37:47 4 1018 210 1 S 0 96.6 565
11:40:49 4 1017 208 2 SO 0 96.6 565
11:43:49 4 1017 208 7 SO 0 96.6 565
11:46:49 4 1018 208 9 SO 0 96.6 563
11:49:47 4 1017 211 2 S 0 96.6 571
11:52:48 4 1018 209 6 SO 0 96.6 574
11:55:48 4 1017 213 5 SO 0 96.6 577
11:58:47 4 1018 214 1 SO 0 96.6 573
12:01:49 4 1017 214 4 SO 0 96.6 577
12:04:48 4 1017 215 2 SO 0 96.6 562
12:07:50 5 1017 217 1 S 0 96.6 550
12:10:47 5 1017 211 1 S 0 96.6 533
12:13:48 5 1017 214 3 SO 0 96.6 526
12:16:48 5 1018 212 3 SO 0 96.6 551
12:19:48 5 1017 214 7 SO 0 96.6 545
12:22:49 5 1017 212 6 SO 0 96.6 548
12:25:50 5 1017 210 4 S 0 96.6 548
12:28:50 5 1017 204 4 SO 0 96.6 548
12:31:48 5 1018 204 2 0 96.6 554
12:34:51 5 1018 207 1 SO 0 96.6 566
12:37:49 5 1017 209 3 SO 0 96.6 574
12:40:49 5 1018 207 2 SO 0 96.6 572
12:43:50 5 1017 209 2 O 0 96.6 580
12:46:49 5 1017 210 4 S 0 96.6 568
12:49:47 5 1018 209 3 SO 0 96.6 571
12:52:49 5 1017 205 2 NO 0 96.6 566
12:55:49 5 1017 211 1 NO 0 96.6 569
12:58:50 5 1018 214 6 SO 0 96.6 572
13:01:50 5 1018 209 5 SO 0 96.6 580
13:04:46 5 1017 212 4 N 0 96.6 571
13:07:47 5 1017 209 4 S 0 96.6 568
13:10:48 5 1017 212 1 NO 0 96.6 569
13:13:48 5 1018 215 2 SO 0 96.6 578
13:16:49 5 1018 220 4 O 0 96.6 540
13:19:48 5 1017 215 4 SO 0 96.6 481
13:22:46 5 1017 206 1 O 0 96.6 474
13:25:47 4 1017 206 1 O 0 96.6 521
13:28:49 4 1017 209 6 SO 0 96.6 531
13:31:49 5 1018 205 2 SO 0 96.6 545
13:34:50 5 1017 206 0 SO 0 96.6 550
13:37:47 5 1018 204 0 S 0 96.6 550
13:40:48 4 1018 202 0 SO 0 96.6 550
13:43:49 4 1017 202 2 SO 0 96.6 545
13:46:48 5 1018 203 0 SO 0 96.6 550
13:49:49 5 1017 206 0 SO 0 96.6 550
13:52:47 5 1017 206 2 O 0 96.6 550
13:55:48 5 1017 208 3 S 0 96.6 559
13:58:50 5 1017 208 2 SO 0 96.6 566
14:01:51 5 1017 217 1 SO 0 96.6 560
14:04:47 5 1018 224 1 S 0 96.6 563
14:07:47 5 1018 226 1 SO 0 96.6 560
14:10:48 5 1017 220 0 SO 0 96.6 559
14:13:47 5 1017 214 1 SO 0 96.6 559
14:16:50 5 1017 215 4 SW 0 96.6 556
14:19:46 5 1017 211 1 S 0 96.6 557
14:22:48 5 1017 212 1 SO 0 96.6 558
14:25:47 5 1017 211 3 SO 0 96.6 560
14:28:47 5 1017 201 2 S 0 96.6 565
14:31:46 5 1017 197 6 SO 0 96.6 571
14:34:47 5 1017 204 7 S 0 96.6 568
14:37:48 5 1017 209 5 S 0 96.6 568
14:40:49 5 1017 209 4 S 0 96.6 565
14:43:48 5 1017 206 4 S 0 96.6 572
14:46:46 5 1017 199 1 S 0 96.6 576
14:49:49 5 1018 196 3 SW 0 96.6 568
14:52:46 4 1017 200 1 SO 0 96.6 570
14:55:47 4 1017 210 3 S 0 96.6 572
14:58:47 4 1017 221 2 SO 0 96.6 570
15:01:47 4 1017 228 2 O 0 96.6 570
15:04:47 4 1018 223 2 SO 0 96.6 571
15:07:51 4 1017 218 0 O 0 96.6 560
15:10:46 4 1017 218 0 O 0 96.6 562
15:13:46 4 1017 218 1 0 96.6 564
15:16:47 4 1017 218 3 O 0 96.6 571
15:19:47 5 1017 216 1 S 0 96.6 567
15:22:48 5 1017 212 3 S 0 96.6 563
15:25:46 4 1017 209 4 W 0 96.6 563
15:28:48 4 1017 208 3 SO 0 96.6 562
15:31:50 4 1017 208 2 SO 0 96.6 566
15:34:50 4 1017 205 2 SO 0 96.6 562
15:37:49 4 1017 201 0 NO 0 96.6 565
15:40:47 4 1017 200 1 NO 0 96.6 568
15:43:49 3 1017 198 1 SO 0 96.6 571
15:46:46 3 1017 194 1 N 0 96.6 569
15:49:47 3 1017 190 1 O 0 96.6 566
15:52:48 3 1018 188 2 O 0 96.6 574
15:55:50 3 1017 185 0 W 0 96.6 565
15:58:48 3 1017 178 0 SO 0 96.6 565
16:01:47 3 1017 171 0 NO 0 96.6 565
16:04:50 2 1018 165 0 SO 0 96.6 557
16:07:48 2 1017 160 0 N 0 96.6 568
16:10:48 2 1018 155 0 O 0 96.6 568
16:13:51 2 1017 149 0 N 0 96.6 569
16:16:51 2 1017 142 0 NO 0 96.6 566
16:19:48 2 1018 134 0 NO 0 96.6 563
16:22:51 2 1017 125 0 SO 0 96.6 566
16:25:49 1 1017 116 0 SO 0 96.6 542
16:28:48 1 1018 105 0 SO 0 96.6 519
16:31:46 1 1018 94 1 S 0 96.6 527
16:34:48 1 1017 83 0 SO 0 96.6 539
16:37:46 1 1018 71 0 N 0 96.6 545
16:40:47 1 1017 59 1 SO 0 96.6 530
16:43:48 1 1017 46 0 SO 0 96.6 530
16:46:45 1 1017 35 0 O 0 96.6 521
16:49:47 1 1018 25 0 NO 0 96.6 516
16:52:46 1 1018 18 0 N 0 96.6 504
16:55:49 0 1017 12 0 NW 0 96.6 498
16:58:46 0 1017 8 0 O 0 96.6 501
17:01:46 0 1018 5 0 SO 0 96.6 504
17:04:45 0 1018 3 0 O 0 96.6 504
17:07:47 0 1017 0 0 NO 0 96.6 499
17:10:48 0 1018 0 0 N 0 96.6 489
17:13:46 0 1018 0 1 O 0 96.6 495
17:16:46 0 1018 0 0 SO 0 96.6 497
17:19:47 0 1018 0 1 S 0 96.6 501
17:22:45 0 1018 0 0 O 0 96.6 510
17:25:47 0 1018 0 1 NO 0 96.6 524
17:28:47 0 1018 0 0 NW 0 96.6 524
17:31:47 0 1017 0 1 NO 0 96.6 524
17:34:48 0 1018 0 0 NO 0 96.6 525
17:37:46 0 1017 0 0 NO 0 96.6 516
17:40:48 0 1017 12 0 NO 0 96.6 522
17:43:48 0 1018 11 0 NO 0 96.6 525
17:46:47 0 1018 11 2 S 0 96.6 519
17:49:46 0 1017 10 1 NO 0 96.6 515
17:52:46 0 1018 10 0 S 0 96.6 512
17:55:48 0 1018 10 0 N 0 96.6 526
17:58:48 0 1018 9 0 NO 0 96.6 557
18:01:47 0 1017 0 1 O 0 96.6 578
18:04:46 0 1018 0 1 NO 0 96.6 592
18:07:49 0 1017 0 0 SO 0 96.6 595
18:10:45 0 1018 0 2 O 0 96.6 604
18:13:47 1 1018 0 0 N 0 96.6 590
18:16:49 1 1017 0 0 NO 0 96.6 592
18:19:48 1 1018 0 0 N 0 96.6 600
18:22:47 1 1018 0 0 SO 0 96.6 609
18:25:47 1 1018 0 2 O 0 96.6 613
18:28:47 1 1018 0 1 S 0 96.6 613
18:31:48 1 1017 0 0 NO 0 96.6 612
18:34:46 1 1018 0 5 SO 0 96.6 621
18:37:52 1 1018 0 2 NO 0 96.6 626
18:40:46 1 1018 0 2 SO 0 96.6 627
18:43:49 1 1018 0 4 SO 0 96.6 623
18:46:44 1 1019 0 0 N 0 96.6 615
18:49:47 1 1018 0 3 S 0 96.6 595
18:52:47 1 1018 0 3 S 0 96.6 586
18:55:47 1 1018 0 1 SO 0 96.6 607
18:58:46 1 1017 0 2 O 0 96.6 603
19:01:47 1 1018 0 0 O 0 96.6 587
19:04:50 1 1019 0 2 SO 0 96.6 568
19:07:48 1 1018 0 5 S 0 96.6 560
19:10:47 1 1019 0 4 SW 0 96.6 555
19:13:45 1 1019 0 6 0 96.6 557
19:16:48 1 1018 0 1 O 0 96.6 556
19:19:51 1 1018 0 2 S 0 96.6 557
19:22:47 1 1018 0 2 S 0 96.6 554
19:25:47 1 1018 0 0 S 0 96.6 541
19:28:44 1 1019 0 1 S 0 96.6 538
19:31:49 1 1019 0 2 SO 0 96.6 537
19:34:48 1 1018 0 4 SO 0 96.6 536
19:37:44 1 1019 0 0 SO 0 96.6 533
19:40:47 1 1018 0 8 SO 0 96.6 536
19:43:47 1 1019 0 1 SO 0 96.6 532
19:46:47 1 1018 0 2 SO 0 96.6 451
19:49:44 1 1018 0 4 S 0 96.6 407
19:52:49 1 1019 0 2 SO 0 96.6 407
20:01:48 1 1018 0 1 SO 0 96.6 405
20:04:50 1 1019 0 0 SO 0 96.6 407
20:07:46 1 1019 0 1 SO 0 96.6 407
20:10:45 1 1019 0 0 S 0 96.6 407
20:13:46 1 1019 0 0 SO 0 96.6 405
20:16:47 1 1019 0 1 SO 0 96.6 407
20:19:49 1 1019 0 0 SO 0 96.6 408
20:22:47 1 1019 0 4 SW 0 96.6 404
20:25:48 1 1019 0 2 S 0 96.6 405
20:28:48 1 1019 0 0 SO 0 96.6 404
20:31:45 1 1018 0 0 S 0 96.6 407
20:34:48 1 1019 0 1 NO 0 96.6 406
20:37:47 1 1019 0 2 SO 0 96.6 407
20:40:49 1 1019 0 9 SW 0 96.6 406
20:43:49 1 1019 0 5 SO 0 96.6 407
20:46:44 1 1019 0 5 S 0 96.6 407
20:49:47 1 1019 0 6 SO 0 96.6 404
20:52:47 1 1019 0 4 S 0 96.6 407
20:55:46 1 1019 0 2 SO 0 96.6 407
20:58:45 1 1018 0 7 S 0 96.6 407
21:01:47 1 1019 0 4 SO 0 96.6 401
21:04:47 1 1019 0 2 SO 0 96.6 406
21:07:47 1 1019 0 1 S 0 96.6 406
21:10:47 1 1018 0 2 SO 0 96.6 404
21:13:47 1 1019 0 2 S 0 96.6 407
21:16:46 1 1019 0 2 O 0 96.6 407
21:19:47 1 1019 0 5 SO 0 96.6 407
21:22:47 1 1019 0 2 S 0 96.6 410
21:25:46 1 1019 0 2 SO 0 96.6 419
21:28:49 1 1019 0 2 SO 0 96.6 424
21:31:46 1 1019 0 3 S 0 96.6 422
21:34:49 1 1019 0 2 SW 0 96.6 422
21:37:48 1 1019 0 0 SO 0 96.6 422
21:40:49 1 1019 0 0 SO 0 96.6 419
21:43:49 1 1019 0 1 SO 0 96.6 416
21:46:46 1 1019 0 2 SO 0 96.6 425
21:49:46 1 1019 0 4 SO 0 96.6 434
21:52:46 1 1019 0 3 SO 0 96.6 439
21:55:46 1 1019 0 2 S 0 96.6 439
21:58:49 1 1019 0 2 SO 0 96.6 442
22:01:47 1 1019 0 2 S 0 96.6 445
22:04:47 1 1019 0 1 SO 0 96.6 447
22:07:47 1 1019 0 0 S 0 96.6 451
22:10:46 1 1019 0 1 O 0 96.6 454
22:13:49 1 1019 0 1 SO 0 96.6 463
22:16:48 1 1019 0 1 SO 0 96.6 462
22:19:45 1 1019 0 2 S 0 96.6 456
22:22:46 1 1019 0 0 O 0 96.6 457
22:25:47 1 1019 0 0 SO 0 96.6 466
22:28:49 0 1018 0 0 SO 0 96.6 471
22:31:47 0 1020 0 0 SO 0 96.6 468
22:34:46 0 1019 0 0 SO 0 96.6 471
22:37:46 0 1020 0 0 SO 0 96.6 477
22:40:46 0 1019 0 0 SO 0 96.6 483
22:43:46 0 1019 0 0 N 0 96.6 494
22:46:47 0 1019 0 0 SO 0 96.6 493
22:49:45 0 1019 0 0 O 0 96.6 503
22:52:47 0 1019 0 0 O 0 96.6 491
22:55:48 0 1019 0 1 SO 0 96.6 497
22:58:49 0 1019 0 0 NO 0 96.6 500
23:01:47 0 1020 0 0 NO 0 96.6 507
23:04:47 0 1019 0 0 O 0 96.6 503
23:07:48 0 1019 0 0 NO 0 96.6 506
23:10:48 0 1019 0 0 NO 0 96.6 504
23:13:46 0 1019 0 0 S 0 96.6 512
23:16:49 0 1018 0 0 NO 0 96.6 509
23:19:48 0 1019 0 0 NO 0 96.6 515
23:22:46 0 1019 0 0 O 0 96.6 500
23:25:49 0 1019 0 0 O 0 96.6 498
23:28:47 0 1019 0 0 O 0 96.6 506
23:31:46 0 1019 0 0 SO 0 96.6 507
23:34:47 0 1018 0 0 SO 0 96.6 512
23:37:48 0 1019 0 0 SO 0 96.6 509
23:40:47 0 1019 0 0 SO 0 96.6 512
23:43:49 0 1019 0 0 SO 0 96.6 512
23:46:48 0 1019 0 0 SO 0 96.6 512
23:49:49 0 1019 0 0 SO 0 96.6 507
23:52:46 0 1019 0 0 SO 0 96.6 509
23:55:47 0 1019 0 0 N 0 96.6 509
23:58:47 0 1019 0 0 N 0 96.6 509

Letzte Änderung : 04-Jan-2022
Copyright Jens Köhler, Wolfsburg, Obere Dorfstraße 10d